| time (UTC) | temp F | wind direction | speed knots | gust knots | rain 1hr in | rain 24hr in | rain mn in | humidity % | barometer mb |
| 20260507070425 | 58 | 26 | 6.1 | 13.9 | 0.00 | 0.00 | 0.00 | 93 | 1011.4 |
| 20260507065525 | 58 | 24 | 7.8 | 13.9 | 0.00 | 0.00 | 0.00 | 95 | 1011.2 |
| 20260507064625 | 58 | 28 | 7.0 | 13.0 | 0.00 | 0.00 | 0.00 | 94 | 1010.6 |
| 20260507063725 | 58 | 27 | 6.1 | 13.0 | 0.00 | 0.00 | 0.00 | 94 | 1010.4 |
| 20260507062825 | 58 | 26 | 6.1 | 13.0 | 0.00 | 0.00 | 0.00 | 94 | 1010.6 |
| 20260507061925 | 59 | 26 | 4.3 | 11.3 | 0.00 | 0.00 | 0.00 | 95 | 1010.8 |
| 20260507061025 | 59 | 26 | 3.5 | 8.7 | 0.00 | 0.00 | 0.00 | 95 | 1011.4 |
| 20260507055225 | 59 | 33 | 3.5 | 7.8 | 0.00 | 0.00 | 0.00 | 94 | 1010.7 |
| 20260507054325 | 60 | 42 | 4.3 | 10.4 | 0.00 | 0.00 | 0.00 | 93 | 1011.0 |
| 20260507053425 | 61 | 26 | 6.1 | 12.2 | 0.00 | 0.00 | 0.00 | 92 | 1011.2 |
| 20260507052525 | 62 | 23 | 2.6 | 10.4 | 0.00 | 0.00 | 0.00 | 91 | 1011.4 |
| 20260507051625 | 62 | 39 | 0.9 | 3.5 | 0.00 | 0.00 | 0.00 | 91 | 1011.3 |
| 20260507050724 | 63 | 6 | 1.7 | 5.2 | 0.00 | 0.00 | 0.00 | 89 | 1011.4 |
| 20260507045824 | 64 | 352 | 1.7 | 5.2 | 0.00 | 0.00 | 0.00 | 86 | 1011.5 |
| 20260507044925 | 64 | 358 | 0.9 | 3.5 | 0.00 | 0.00 | 0.00 | 86 | 1011.3 |
| 20260507044024 | 65 | 38 | 1.7 | 6.1 | 0.00 | 0.00 | 0.00 | 87 | 1011.1 |
| 20260507043124 | 65 | 17 | 1.7 | 6.1 | 0.00 | 0.00 | 0.00 | 86 | 1010.9 |
| 20260507042225 | 65 | 29 | 4.3 | 9.6 | 0.00 | 0.00 | 0.00 | 85 | 1010.9 |
| 20260507041325 | 66 | 15 | 2.6 | 7.8 | 0.00 | 0.00 | 0.00 | 89 | 1010.6 |
| 20260507040424 | 66 | 298 | 0.9 | 4.3 | 0.00 | 0.00 | 0.00 | 90 | 1010.6 |
| 20260507035524 | 66 | 300 | 1.7 | 7.0 | 0.00 | 0.00 | 0.00 | 89 | 1010.5 |
| 20260507034624 | 67 | 299 | 0.0 | 7.0 | 0.00 | 0.00 | 0.00 | 88 | 1010.6 |
| 20260507032824 | 67 | 0 | 0.0 | 0.0 | 0.00 | 0.00 | 0.00 | 89 | 1010.1 |
| 20260507031924 | 67 | 0 | 0.0 | 0.0 | 0.00 | 0.00 | 0.00 | 89 | 1010.0 |
| 20260507031024 | 67 | 255 | 0.0 | 1.7 | 0.00 | 0.00 | 0.00 | 89 | 1010.1 |
| 20260507025224 | 66 | 258 | 1.7 | 3.5 | 0.00 | 0.00 | 0.00 | 90 | 1010.0 |
| 20260507024324 | 66 | 250 | 2.6 | 6.1 | 0.00 | 0.00 | 0.00 | 90 | 1010.0 |
| 20260507023424 | 66 | 246 | 2.6 | 6.1 | 0.00 | 0.00 | 0.00 | 91 | 1010.1 |
| 20260507022524 | 66 | 274 | 0.9 | 1.7 | 0.00 | 0.00 | 0.00 | 91 | 1010.4 |
| 20260507021624 | 66 | 273 | 1.7 | 3.5 | 0.00 | 0.00 | 0.00 | 91 | 1010.2 |
| 20260507020724 | 66 | 274 | 1.7 | 3.5 | 0.00 | 0.00 | 0.00 | 91 | 1010.3 |
| 20260507015824 | 66 | 0 | 0.0 | 0.0 | 0.00 | 0.00 | 0.00 | 91 | 1010.3 |
| 20260507014924 | 66 | 0 | 0.0 | 0.0 | 0.00 | 0.00 | 0.00 | 90 | 1010.4 |
| 20260507014024 | 66 | 278 | 0.0 | 0.9 | 0.00 | 0.00 | 0.00 | 91 | 1010.6 |
| 20260507013124 | 65 | 278 | 0.0 | 0.9 | 0.00 | 0.00 | 0.00 | 92 | 1010.8 |
| 20260507011324 | 64 | 278 | 0.0 | 0.9 | 0.00 | 0.00 | 0.00 | 93 | 1010.5 |
| 20260507010424 | 65 | 0 | 0.0 | 0.0 | 0.00 | 0.00 | 0.00 | 91 | 1010.4 |
| 20260507005524 | 65 | 0 | 0.0 | 0.0 | 0.00 | 0.00 | 0.00 | 91 | 1010.3 |
| 20260507004624 | 65 | 0 | 0.0 | 0.0 | 0.00 | 0.00 | 0.00 | 90 | 1010.4 |
| 20260507003724 | 66 | 278 | 0.0 | 0.9 | 0.00 | 0.00 | 0.00 | 89 | 1010.2 |
| 20260507001924 | 67 | 278 | 0.0 | 0.9 | 0.00 | 0.00 | 0.00 | 87 | 1010.3 |
| 20260507001024 | 67 | 278 | 0.0 | 0.9 | 0.00 | 0.00 | 0.00 | 87 | 1010.1 |
| 20260507000124 | 67 | 277 | 0.0 | 1.7 | 0.00 | 0.00 | 0.00 | 86 | 1010.2 |
| 20260506234324 | 68 | 277 | 0.0 | 2.6 | 0.00 | 0.00 | 0.00 | 85 | 1010.0 |
| 20260506233423 | 68 | 277 | 0.9 | 2.6 | 0.00 | 0.00 | 0.00 | 85 | 1009.9 |
| 20260506232523 | 68 | 275 | 0.0 | 3.5 | 0.00 | 0.00 | 0.00 | 84 | 1009.9 |
| 20260506231624 | 68 | 268 | 0.9 | 2.6 | 0.00 | 0.00 | 0.00 | 84 | 1009.9 |
| 20260506230724 | 69 | 267 | 1.7 | 4.3 | 0.00 | 0.00 | 0.00 | 84 | 1009.8 |
| 20260506224924 | 69 | 268 | 2.6 | 5.2 | 0.00 | 0.00 | 0.00 | 83 | 1009.8 |
| 20260506224023 | 69 | 270 | 1.7 | 5.2 | 0.00 | 0.00 | 0.00 | 83 | 1009.8 |
| 20260506223123 | 69 | 264 | 1.7 | 6.1 | 0.00 | 0.00 | 0.00 | 83 | 1009.7 |
| 20260506222223 | 69 | 272 | 1.7 | 6.1 | 0.00 | 0.00 | 0.00 | 83 | 1009.7 |
| 20260506221323 | 69 | 265 | 2.6 | 6.1 | 0.00 | 0.00 | 0.00 | 82 | 1009.8 |
| 20260506220423 | 70 | 265 | 2.6 | 7.0 | 0.00 | 0.00 | 0.00 | 82 | 1009.8 |
| 20260506215523 | 70 | 265 | 2.6 | 7.0 | 0.00 | 0.00 | 0.00 | 81 | 1009.7 |
| 20260506214623 | 70 | 268 | 3.5 | 7.8 | 0.00 | 0.00 | 0.00 | 81 | 1009.6 |
| 20260506213723 | 70 | 270 | 3.5 | 7.8 | 0.00 | 0.00 | 0.00 | 82 | 1009.7 |
| 20260506212824 | 70 | 269 | 4.3 | 8.7 | 0.00 | 0.00 | 0.00 | 82 | 1009.6 |
| 20260506211923 | 69 | 267 | 4.3 | 9.6 | 0.00 | 0.00 | 0.00 | 82 | 1009.4 |
| 20260506211024 | 70 | 270 | 3.5 | 8.7 | 0.00 | 0.00 | 0.00 | 82 | 1009.4 |
| 20260506210124 | 69 | 269 | 4.3 | 13.0 | 0.00 | 0.00 | 0.00 | 82 | 1009.3 |
| 20260506204323 | 69 | 267 | 5.2 | 15.6 | 0.00 | 0.00 | 0.00 | 82 | 1009.2 |
| 20260506203423 | 69 | 270 | 5.2 | 9.6 | 0.00 | 0.00 | 0.00 | 82 | 1009.6 |
| 20260506202523 | 69 | 269 | 5.2 | 11.3 | 0.00 | 0.00 | 0.00 | 83 | 1009.4 |
| 20260506201624 | 69 | 268 | 5.2 | 16.5 | 0.00 | 0.00 | 0.00 | 83 | 1009.2 |
| 20260506200723 | 69 | 268 | 5.2 | 10.4 | 0.00 | 0.00 | 0.00 | 83 | 1009.1 |
| 20260506195824 | 68 | 268 | 5.2 | 13.9 | 0.00 | 0.00 | 0.00 | 84 | 1009.3 |
| 20260506194923 | 68 | 264 | 5.2 | 14.8 | 0.00 | 0.00 | 0.00 | 84 | 1009.5 |
| 20260506194023 | 68 | 261 | 5.2 | 14.8 | 0.00 | 0.00 | 0.00 | 84 | 1009.6 |
| 20260506193123 | 68 | 263 | 5.2 | 13.0 | 0.00 | 0.00 | 0.00 | 84 | 1009.6 |
| 20260506192223 | 68 | 264 | 5.2 | 13.0 | 0.00 | 0.00 | 0.00 | 84 | 1009.8 |
| 20260506191323 | 68 | 258 | 6.1 | 15.6 | 0.00 | 0.00 | 0.00 | 83 | 1009.9 |
| 20260506190424 | 68 | 263 | 5.2 | 15.6 | 0.00 | 0.00 | 0.00 | 83 | 1010.0 |
| 20260506185523 | 68 | 259 | 6.1 | 17.4 | 0.00 | 0.00 | 0.00 | 83 | 1009.9 |
| 20260506184623 | 68 | 265 | 4.3 | 17.4 | 0.00 | 0.00 | 0.00 | 83 | 1010.0 |
| 20260506183723 | 67 | 260 | 4.3 | 13.9 | 0.00 | 0.00 | 0.00 | 84 | 1010.1 |
| 20260506182823 | 67 | 262 | 7.0 | 14.8 | 0.00 | 0.00 | 0.00 | 84 | 1010.3 |
| 20260506181923 | 67 | 261 | 7.0 | 15.6 | 0.00 | 0.00 | 0.00 | 84 | 1010.4 |
| 20260506181023 | 67 | 259 | 7.8 | 16.5 | 0.00 | 0.00 | 0.00 | 84 | 1010.4 |
| 20260506180123 | 67 | 258 | 7.0 | 13.9 | 0.00 | 0.00 | 0.00 | 85 | 1010.6 |
| 20260506175223 | 66 | 262 | 6.1 | 16.5 | 0.00 | 0.00 | 0.00 | 85 | 1010.6 |
| 20260506174323 | 66 | 255 | 7.0 | 18.2 | 0.00 | 0.00 | 0.00 | 86 | 1010.7 |
| 20260506173423 | 66 | 255 | 6.1 | 16.5 | 0.00 | 0.00 | 0.00 | 86 | 1010.8 |
| 20260506172523 | 66 | 261 | 6.1 | 17.4 | 0.00 | 0.00 | 0.00 | 86 | 1010.8 |
| 20260506171623 | 66 | 257 | 7.8 | 20.0 | 0.00 | 0.00 | 0.00 | 86 | 1010.8 |
| 20260506170723 | 65 | 257 | 7.8 | 20.0 | 0.00 | 0.00 | 0.00 | 86 | 1010.8 |
| 20260506165823 | 65 | 257 | 7.8 | 18.2 | 0.00 | 0.00 | 0.00 | 86 | 1010.7 |
| 20260506164923 | 66 | 263 | 7.8 | 19.1 | 0.00 | 0.00 | 0.00 | 86 | 1010.8 |
| 20260506163123 | 65 | 257 | 7.8 | 18.2 | 0.00 | 0.00 | 0.00 | 88 | 1010.9 |
| 20260506162223 | 64 | 250 | 8.7 | 17.4 | 0.00 | 0.00 | 0.00 | 89 | 1010.9 |
| 20260506161323 | 64 | 251 | 8.7 | 24.3 | 0.00 | 0.00 | 0.00 | 88 | 1011.2 |
| 20260506160424 | 65 | 246 | 9.6 | 20.0 | 0.00 | 0.00 | 0.00 | 86 | 1011.2 |
| 20260506155523 | 64 | 244 | 8.7 | 19.1 | 0.00 | 0.00 | 0.00 | 87 | 1011.1 |
| 20260506154623 | 64 | 244 | 7.8 | 17.4 | 0.00 | 0.00 | 0.00 | 88 | 1011.7 |
| 20260506153724 | 63 | 244 | 6.1 | 13.9 | 0.00 | 0.00 | 0.00 | 90 | 1012.0 |
| 20260506152823 | 63 | 254 | 4.3 | 10.4 | 0.00 | 0.00 | 0.00 | 90 | 1012.2 |
| 20260506151923 | 63 | 256 | 4.3 | 9.6 | 0.00 | 0.00 | 0.00 | 90 | 1012.3 |
| 20260506151023 | 63 | 254 | 5.2 | 11.3 | 0.00 | 0.00 | 0.00 | 88 | 1012.3 |
| 20260506150123 | 64 | 261 | 5.2 | 10.4 | 0.00 | 0.00 | 0.00 | 87 | 1012.2 |
| 20260506145223 | 64 | 261 | 5.2 | 10.4 | 0.00 | 0.00 | 0.00 | 85 | 1012.4 |
| 20260506144323 | 65 | 256 | 4.3 | 9.6 | 0.00 | 0.00 | 0.00 | 84 | 1012.3 |
| 20260506141623 | 66 | 256 | 6.1 | 12.2 | 0.00 | 0.00 | 0.00 | 79 | 1012.3 |
| 20260506140723 | 66 | 256 | 6.1 | 13.0 | 0.00 | 0.00 | 0.00 | 78 | 1012.4 |
| 20260506135823 | 67 | 256 | 5.2 | 15.6 | 0.00 | 0.00 | 0.00 | 77 | 1012.4 |
| 20260506134923 | 67 | 256 | 6.1 | 13.0 | 0.00 | 0.00 | 0.00 | 77 | 1012.3 |
| 20260506134023 | 67 | 252 | 6.1 | 14.8 | 0.00 | 0.00 | 0.00 | 76 | 1012.3 |
| 20260506132223 | 66 | 240 | 8.7 | 21.7 | 0.00 | 0.00 | 0.00 | 76 | 1012.1 |
| 20260506131323 | 67 | 251 | 7.8 | 21.7 | 0.00 | 0.00 | 0.00 | 76 | 1012.1 |
| 20260506125523 | 66 | 257 | 6.1 | 13.0 | 0.00 | 0.00 | 0.00 | 77 | 1012.1 |
| 20260506124622 | 66 | 249 | 7.8 | 16.5 | 0.00 | 0.00 | 0.00 | 77 | 1012.3 |
| 20260506123722 | 66 | 248 | 8.7 | 19.1 | 0.00 | 0.00 | 0.00 | 77 | 1012.1 |
| 20260506122823 | 66 | 247 | 9.6 | 22.6 | 0.00 | 0.00 | 0.00 | 76 | 1012.4 |
| 20260506121922 | 66 | 243 | 11.3 | 22.6 | 0.00 | 0.00 | 0.00 | 76 | 1012.3 |
| 20260506121022 | 66 | 252 | 8.7 | 20.0 | 0.00 | 0.00 | 0.00 | 77 | 1012.4 |
| 20260506115223 | 66 | 254 | 7.0 | 18.2 | 0.00 | 0.00 | 0.00 | 77 | 1012.2 |
| 20260506113423 | 66 | 246 | 7.8 | 15.6 | 0.00 | 0.00 | 0.00 | 78 | 1012.0 |
| 20260506112523 | 65 | 241 | 7.8 | 13.9 | 0.00 | 0.00 | 0.00 | 79 | 1012.0 |
| 20260506111622 | 65 | 241 | 7.8 | 19.1 | 0.00 | 0.00 | 0.00 | 79 | 1011.8 |
| 20260506110722 | 65 | 241 | 7.8 | 18.2 | 0.00 | 0.00 | 0.00 | 80 | 1011.8 |
| 20260506105822 | 65 | 234 | 9.6 | 17.4 | 0.00 | 0.00 | 0.00 | 80 | 1011.6 |
| 20260506104922 | 65 | 241 | 8.7 | 17.4 | 0.00 | 0.00 | 0.00 | 80 | 1011.7 |
| 20260506104022 | 65 | 242 | 9.6 | 18.2 | 0.00 | 0.00 | 0.00 | 80 | 1011.8 |
| 20260506101322 | 65 | 240 | 8.7 | 20.0 | 0.00 | 0.00 | 0.00 | 81 | 1011.6 |
| 20260506100422 | 65 | 248 | 8.7 | 17.4 | 0.00 | 0.00 | 0.00 | 81 | 1011.8 |
| 20260506095522 | 65 | 253 | 7.8 | 17.4 | 0.00 | 0.00 | 0.00 | 81 | 1011.9 |
| 20260506094622 | 65 | 252 | 8.7 | 19.1 | 0.00 | 0.00 | 0.00 | 81 | 1011.8 |
| 20260506092822 | 65 | 251 | 9.6 | 21.7 | 0.00 | 0.00 | 0.00 | 81 | 1011.8 |
| 20260506091922 | 65 | 249 | 10.4 | 22.6 | 0.00 | 0.00 | 0.00 | 81 | 1012.0 |
| 20260506091022 | 65 | 251 | 8.7 | 20.0 | 0.00 | 0.00 | 0.00 | 81 | 1012.0 |
| 20260506090122 | 66 | 250 | 7.8 | 19.1 | 0.00 | 0.00 | 0.00 | 81 | 1011.9 |
| 20260506084322 | 66 | 247 | 8.7 | 22.6 | 0.00 | 0.00 | 0.00 | 81 | 1012.0 |
| 20260506083422 | 66 | 248 | 8.7 | 18.2 | 0.00 | 0.00 | 0.00 | 80 | 1011.9 |
| 20260506082522 | 66 | 245 | 9.6 | 19.1 | 0.00 | 0.00 | 0.00 | 80 | 1011.8 |
| 20260506080722 | 66 | 243 | 10.4 | 22.6 | 0.00 | 0.00 | 0.00 | 80 | 1011.9 |
| 20260506072222 | 67 | 245 | 10.4 | 21.7 | 0.00 | 0.00 | 0.00 | 79 | 1012.3 |